カタログに戻る

DMSP 5D-2 F11 DEB

運用中SSO
NORAD 29078·DEBRIS·🇺🇸 United States

打ち上げ Nov 28, 1991 から Vandenberg Space Force Base

Loading…

次のパス (今後24時間)

TLE

最新Source: Space-Track

元期: Sep 13, 2026, 17:09 UTC

1 29078U 91082BZ  26256.71483861  .00003595  00000-0  95360-3 0  9993
2 29078  98.6741 351.0756 0016419  84.7688 275.5378 14.49251298633635

AllMySatでDMSP 5D-2 F11 DEBをリアルタイム追跡

Download on the App Store